Location: *
(45.4590°N, 16.3650°E)
Time: 22:01:29
(UTC+00:00)

STARLINK-1083 - Pass Details

Date: 17 January 2020
Orbit: 348 x 351 km, 53.0° (Epoch: 17 February)

Event Time Altitude Azimuth Distance (km) Brightness Sun altitude
Rises 17:23:00 0° 239° (WSW) 2,154 8.0 -17.8°
Reaches altitude 10° 17:25:00 10° 241° (WSW) 1,315 6.7 -18.1°
Maximum altitude 17:27:56 81° 329° (NNW) 362 2.6 -18.6°
Enters shadow 17:27:57 80° 336° (NNW) 362 2.6 -18.6°
